Regional Weather Roundup
Issued by NWS

Current Version | Previous Version | Text Only | Print | Product List | Glossary Off
Versions: 1 2 3 4 5 6 7 8 9 10 11 12 13 14 15 16 17 18 19 20 21 22 23 24 25 26 27 28 29 30 31 32 33 34 35 36 37 38 39 40 41 42 43 44 45 46 47 48

000
ASUS44 KBMX 260910
RWRAL

ALABAMA REGIONAL WEATHER ROUNDUP
NATIONAL WEATHER SERVICE BIRMINGHAM AL
400 AM CDT SUN APR 26 2015

NOTE: "FAIR" INDICATES FEW OR NO CLOUDS BELOW 12,000 FEET
WITH NO SIGNIFICANT WEATHER AND/OR OBSTRUCTIONS TO VISIBILITY.

THE REMARK "TC" DENOTES TEMPERATURE IN DEGREES CELSIUS.

ALZ001>011-014-016>018-020-261000-
NORTH ALABAMA

CITY           SKY/WX    TMP DP  RH WIND       PRES   REMARKS
MUSCLE SHOALS  CLEAR     67  64  90 NW6       29.64R
HUNTSVILLE     PTCLDY    66  63  90 W6        29.63R
DECATUR        CLEAR     66  65  96 W5        29.63R
HALEYVILLE       N/A     64  64 100 CALM      29.68R
GADSDEN        CLEAR    N/A N/A N/A SW6       29.63R
$$

ALZ012-013-022-023-030>036-040>044-261000-
WEST CENTRAL ALABAMA

CITY           SKY/WX    TMP DP  RH WIND       PRES   REMARKS
TUSCALOOSA     CLEAR     64  62  93 S5        29.68R
$$

ALZ015-024>027-033>036-040>044-261000-
CENTRAL ALABAMA

CITY           SKY/WX    TMP DP  RH WIND       PRES   REMARKS
BIRMINGHAM     CLEAR     64  63  96 SW5       29.68R
MONTGOMERY     CLEAR     64  62  93 CALM      29.70S
SHELBY CO ARPT CLOUDY    63  62  97 SW7       29.68S FOG
MAXWELL AFB    CLEAR     62  62  98 S1        29.69S
GREENVILLE     FAIR      63  61  93 W6        29.71S
$$

ALZ019-021-028-029-037-038-045>048-261000-
EAST CENTRAL ALABAMA

CITY           SKY/WX    TMP DP  RH WIND       PRES   REMARKS
ANNISTON       CLEAR     62  60  93 W7        29.66R
ALEXANDER CITY CLOUDY    66  62  86 SW6       29.69S
AUBURN         NOT AVBL
$$

ALZ051>064-261000-
SOUTHWEST ALABAMA

CITY           SKY/WX    TMP DP  RH WIND       PRES   REMARKS
MOBILE         CLEAR     64  63  96 W3        29.75R
BROOKLEY FIELD CLEAR     66  63  90 W3        29.75S
EVERGREEN      CLEAR     61  60  97 CALM      29.74R FOG
$$

ALZ049-050-065>069-261000-
SOUTHEAST ALABAMA

CITY           SKY/WX    TMP DP  RH WIND       PRES   REMARKS
DOTHAN         CLEAR     66  64  93 SW9       29.76S
OZARK          CLEAR     64  60  88 S5        29.73S
TROY           CLEAR     63  61  93 S3        29.72S
EUFAULA        FAIR      64  62  93 SW5       29.69F
$$


USA.gov is the U.S. government's official web portal to all federal, state and local government web resources and services.